RH
62 57 52 46 42 40 43 48 49 48 48 48 49 49 48 46 42 37 32 27 24 21 18 17 15 15 15 16 19 23 31 39 46 51 54 55 57 59 60 60 60 61 62 64 66 68 68 67 67 67 67 67 67 67 67 68 68 68 67 68 67 66 66 64 63 62 61 59 58 57 57 56 56 56 56 57 58 58 59 58 57 55 54 52 51
58 55 50 45 43 44 50 54 52 51 51 51 51 51 50 47 43 37 32 27 24 21 18 17 15 15 15 15 16 18 23 30 38 48 55 59 64 67 69 69 68 67 66 66 67 68 70 70 69 69 68 68 68 68 69 68 68 69 68 69 69 68 68 67 66 65 64 63 61 60 58 57 56 55 54 54 54 55 56 57 57 56 55 53 51
56 52 48 46 46 50 57 58 55 53 53 53 54 53 52 49 44 38 31 27 24 21 18 17 15 15 15 15 16 17 20 23 28 37 45 52 59 65 71 74 75 76 74 72 71 71 72 72 72 72 71 71 71 70 70 70 70 70 70 70 70 70 70 69 68 66 65 64 62 61 60 59 57 56 55 54 52 51 50 51 52 53 54 54 53
56 51 48 48 49 57 63 61 57 55 54 55 55 55 54 49 44 38 31 27 24 21 19 17 15 16 15 16 17 18 19 20 23 29 35 42 49 55 63 68 72 75 77 78 78 76 75 74 74 75 74 74 74 73 73 72 72 71 71 71 70 70 70 69 68 66 64 63 61 59 58 57 56 55 55 54 52 51 49 48 47 46 47 48 49
55 51 50 50 54 63 67 62 59 57 56 57 57 57 55 50 45 38 31 27 24 21 19 17 16 16 15 16 17 18 20 21 22 25 30 36 44 51 59 65 70 73 76 79 82 82 82 81 80 80 80 80 79 78 77 77 76 75 73 72 70 69 67 66 65 64 62 61 58 56 55 53 52 52 51 50 49 48 47 46 45 44 43 42 43
56 54 53 53 60 68 68 63 60 58 58 58 58 58 55 50 45 38 31 27 24 21 19 18 17 16 16 16 17 18 19 20 22 23 25 30 38 45 53 60 67 72 75 78 82 84 86 86 87 88 88 88 86 85 83 81 79 77 74 72 69 66 64 62 61 59 58 57 55 53 51 49 48 47 46 45 43 41 40 38 38 38 38 39 39
58 57 55 56 65 70 68 64 62 60 60 59 59 58 55 50 45 38 31 27 24 22 20 18 17 17 17 17 17 17 18 19 21 21 22 25 30 37 44 51 58 65 70 74 77 81 83 84 87 89 91 92 92 91 88 85 81 77 74 71 67 64 61 58 56 54 52 51 48 47 45 43 41 40 38 38 36 36 34 31 29 28 29 31 32
60 57 56 60 68 71 68 65 63 62 62 61 60 59 55 50 45 38 32 27 24 22 21 20 19 18 18 18 18 18 19 20 20 20 21 22 25 31 36 42 49 55 61 65 69 73 77 79 82 84 87 89 90 90 87 83 79 75 72 69 64 61 57 54 51 48 45 43 41 39 37 36 34 32 30 29 28 27 27 26 25 23 22 21 22
60 58 58 64 70 71 68 66 65 64 63 63 62 60 55 50 44 38 32 27 25 23 21 21 21 21 21 21 20 20 20 21 21 21 21 22 23 26 30 35 40 45 50 55 59 63 68 72 75 77 79 80 80 80 79 76 73 69 65 62 58 55 52 48 46 42 39 36 33 31 29 28 27 25 23 22 21 20 19 19 20 19 18 17 15
60 59 61 66 70 70 68 67 67 66 65 64 63 60 55 49 44 38 32 28 25 23 22 22 22 23 23 24 23 23 22 22 23 23 22 22 22 24 27 30 34 37 41 45 48 52 56 60 63 65 67 69 69 69 68 66 64 60 57 53 50 47 44 40 37 33 30 28 25 23 21 20 20 19 18 17 16 16 16 15 15 14 14 14 13
59 60 64 68 69 69 69 69 68 67 67 66 63 60 54 48 43 37 31 27 25 23 22 22 23 24 25 26 26 26 25 25 26 26 25 24 24 24 25 28 31 33 35 38 40 42 44 47 50 52 53 55 56 56 56 55 53 50 47 45 41 38 35 32 28 25 22 20 19 18 17 16 16 16 16 15 14 14 14 14 14 14 13 13 12
58 61 66 68 68 70 70 70 69 68 68 66 63 59 53 47 41 35 30 27 25 23 23 23 23 24 26 27 28 28 28 28 28 28 27 26 26 26 26 26 28 30 31 33 35 36 37 38 41 42 43 43 44 44 45 44 41 39 37 35 32 29 26 24 22 20 19 17 17 16 16 15 15 15 15 15 14 14 14 13 13 13 13 12 12
60 63 66 67 68 71 72 72 70 69 68 66 62 58 51 45 40 34 30 27 25 24 23 23 24 25 26 28 29 29 28 29 30 30 29 28 28 30 30 27 26 27 29 31 32 32 32 33 33 35 35 34 35 35 35 34 32 29 28 26 25 23 21 20 19 18 18 17 17 16 16 16 16 15 15 15 14 13 13 12 12 12 12 11 11
62 64 66 67 70 74 75 74 71 69 67 65 61 56 49 43 38 33 30 27 25 24 23 23 24 24 26 28 29 29 28 29 30 30 29 29 29 31 33 31 27 25 26 27 28 28 28 27 27 28 28 28 28 28 28 27 25 23 21 21 21 21 20 19 19 18 18 17 17 16 16 16 15 15 14 13 13 12 12 11 11 11 10 9 9
62 64 65 66 71 76 77 74 72 70 67 64 60 54 47 41 36 31 29 27 25 23 22 23 24 24 25 27 28 29 28 27 28 29 28 28 27 28 31 31 29 26 23 23 23 23 23 23 23 22 22 23 23 23 23 23 22 20 19 19 20 21 20 20 19 18 17 16 16 15 15 14 14 14 13 12 11 10 10 10 10 10 9 8 7
62 63 64 68 74 78 78 75 73 70 67 63 58 51 43 38 33 29 27 26 24 22 22 22 23 23 24 25 26 28 27 25 26 27 26 25 25 25 27 28 28 27 24 21 20 20 20 20 20 19 19 20 21 22 22 22 21 21 19 19 20 20 21 19 17 17 16 15 15 14 13 12 12 12 11 11 10 10 9 10 10 10 9 9 8
61 62 65 71 78 81 79 76 73 70 67 62 55 47 40 34 30 27 26 25 23 21 21 21 22 23 23 23 24 25 25 24 23 25 25 23 23 23 23 24 25 25 23 21 19 18 18 17 17 17 17 18 19 21 22 23 23 21 20 19 18 19 20 19 16 15 14 14 13 13 12 12 11 11 11 10 10 10 10 11 10 10 10 9 9
60 62 67 75 82 84 80 76 73 70 67 60 52 44 36 31 27 25 24 24 23 21 21 21 21 22 22 22 22 23 24 23 22 23 23 22 21 21 21 22 22 22 21 19 18 18 17 16 16 16 16 17 18 19 20 22 23 21 19 18 16 17 19 18 16 15 14 13 13 12 12 12 11 11 11 11 11 11 11 12 11 11 10 9 9
60 62 70 79 85 84 80 76 73 70 65 57 48 39 33 28 25 24 24 24 23 22 21 21 21 21 21 20 21 21 22 21 21 21 21 20 20 20 19 20 20 20 19 18 18 17 16 15 15 15 15 16 16 17 18 19 20 20 18 17 15 16 17 16 15 15 14 14 13 12 12 13 12 12 12 12 12 12 12 13 12 11 11 9 10
59 64 73 83 86 84 80 76 73 69 62 53 44 36 30 26 24 24 25 24 23 22 22 22 21 21 19 19 19 19 19 20 19 18 18 18 18 18 18 18 18 18 18 18 18 17 16 15 15 15 16 16 15 15 16 16 17 16 16 15 15 15 15 14 14 15 15 14 14 13 13 13 13 13 13 13 13 13 13 13 12 12 11 10 12
60 67 78 85 87 84 80 77 74 67 58 49 40 32 28 25 25 25 25 23 23 23 22 22 21 20 19 18 18 17 17 17 17 17 16 16 16 16 16 16 16 16 16 17 17 16 15 15 15 15 15 15 15 14 14 13 14 14 14 14 14 15 15 14 14 15 15 14 14 13 13 14 14 13 13 13 13 14 14 13 13 12 11 12 14
62 72 82 88 88 85 80 77 72 63 53 44 36 30 27 26 26 26 24 23 22 22 22 21 20 19 18 17 16 16 15 15 16 16 15 15 14 14 14 14 14 15 15 16 15 15 14 14 14 14 14 14 13 13 12 12 12 13 13 13 14 14 14 14 14 14 14 14 14 13 13 14 14 13 14 14 14 14 14 13 13 12 12 13 15
67 78 86 90 89 85 80 75 67 57 47 39 33 29 28 27 27 26 23 22 21 21 21 20 19 18 17 16 15 15 14 14 14 14 14 14 13 13 13 13 13 13 14 14 14 13 13 13 13 13 12 12 12 11 12 12 12 12 13 13 13 14 14 15 14 14 14 13 13 13 13 14 14 13 13 14 14 14 14 13 13 13 13 15 15
73 83 89 91 88 83 78 70 61 51 43 36 32 29 29 29 28 26 23 21 21 20 19 18 17 17 16 15 15 14 14 14 14 13 14 14 13 13 13 12 12 12 13 13 13 13 13 12 12 12 12 11 11 11 12 12 12 13 13 13 13 14 14 15 15 14 14 13 13 13 13 13 14 14 13 14 14 14 13 13 13 13 14 15 15
78 87 90 89 86 81 74 65 55 46 39 34 31 30 30 31 29 25 22 21 20 19 18 17 16 15 15 14 14 14 14 14 13 13 13 13 13 13 13 13 13 13 13 13 13 13 13 13 12 12 12 12 12 12 12 12 12 13 13 14 14 14 14 15 15 14 14 13 13 13 13 13 14 14 14 14 14 14 13 12 12 14 16 15 14
83 90 91 88 84 77 69 59 51 43 37 33 31 30 31 31 28 24 22 20 19 18 17 16 15 14 14 14 14 14 14 13 13 13 13 13 13 13 14 14 14 14 13 14 13 13 13 13 13 12 12 12 12 12 12 12 12 13 14 14 14 14 14 14 14 14 14 13 13 13 12 13 13 13 14 14 14 14 14 13 13 14 15 15 14
89 93 92 88 81 73 64 55 48 41 36 33 30 30 30 29 25 23 21 19 18 16 15 15 14 14 14 14 14 14 14 13 13 13 13 13 13 13 14 14 14 14 14 14 14 13 13 13 13 12 12 12 12 12 12 12 12 13 13 14 14 14 14 14 14 14 14 13 13 12 12 12 13 13 13 13 13 14 13 14 15 15 14 15 15
93 95 92 86 78 69 60 52 46 40 35 32 30 30 30 27 24 22 19 17 16 15 14 14 14 14 14 14 14 14 14 13 13 13 13 13 13 14 14 14 14 14 14 13 14 13 13 13 13 12 12 12 13 13 13 13 13 13 13 13 13 14 14 14 14 13 13 13 12 11 11 12 12 13 13 13 13 14 14 17 18 16 14 15 15
94 93 89 83 73 64 56 48 42 36 33 31 30 29 27 25 23 20 18 15 15 14 14 14 14 14 14 14 14 15 14 14 14 14 14 14 14 14 14 14 14 14 13 14 14 13 13 13 13 13 13 13 13 13 13 13 13 13 13 13 14 14 14 14 14 13 13 12 11 11 11 12 12 12 13 13 13 14 17 20 19 16 15 16 15
96 91 86 79 69 60 52 44 37 32 30 30 30 28 24 21 20 18 16 15 14 14 14 14 14 15 15 15 15 15 14 15 14 14 14 14 15 15 14 14 14 14 14 14 14 14 14 14 14 13 13 13 14 14 14 14 14 14 14 14 14 15 15 15 14 14 12 11 11 11 11 12 12 12 12 13 13 16 21 22 18 16 17 17 16
93 90 85 76 66 57 48 39 33 30 29 29 28 27 23 20 17 16 15 15 14 14 14 14 14 14 14 15 15 14 14 14 14 14 14 14 14 14 13 13 13 13 13 14 14 14 14 14 14 14 13 13 14 14 14 14 14 13 13 13 14 14 14 15 15 14 13 12 11 12 12 13 13 12 12 13 15 19 23 22 17 17 18 17 16
92 90 82 72 62 53 43 35 31 28 27 26 25 23 21 19 17 15 14 14 14 14 14 14 14 14 13 13 14 13 13 13 12 13 13 13 13 13 12 12 12 12 12 13 13 13 13 13 13 12 12 13 13 13 13 13 13 13 13 12 13 13 14 14 15 14 14 13 12 13 13 13 13 12 12 15 19 22 22 20 17 17 18 17 17
94 89 79 68 57 46 36 31 27 25 25 23 21 20 18 17 16 16 15 14 14 13 13 13 13 12 12 12 12 12 11 11 11 12 12 12 12 12 11 11 11 11 11 11 11 11 11 11 11 11 11 11 11 12 12 12 12 12 12 11 12 12 12 14 15 15 15 15 14 14 14 13 12 12 13 18 21 21 20 18 18 18 18 17 17
94 85 74 62 50 38 31 27 24 23 22 20 19 18 17 16 16 16 15 15 14 13 12 11 11 11 11 11 11 10 10 11 10 10 11 11 11 11 11 11 10 10 11 11 10 11 10 10 10 10 9 10 10 10 11 11 11 12 12 11 11 11 11 13 15 16 16 16 15 15 14 13 12 13 16 20 21 19 18 18 18 18 18 17 17
90 78 65 52 39 30 26 23 21 21 20 18 17 16 15 15 15 15 14 14 13 12 11 10 9 10 10 9 9 9 9 10 10 10 10 10 10 10 10 10 10 10 10 11 11 11 10 10 10 10 9 9 10 9 10 10 10 11 11 11 11 11 12 13 15 16 17 17 16 15 13 12 12 15 19 21 19 17 18 19 18 18 18 18 19
82 69 54 40 31 25 22 20 20 19 17 16 16 15 14 14 14 13 13 13 12 11 11 10 9 9 9 9 9 9 9 9 9 9 9 9 9 9 9 9 10 10 10 10 10 11 11 11 10 10 10 9 9 9 9 9 10 10 11 11 11 12 13 13 15 17 17 16 15 14 12 12 14 18 19 19 17 17 18 18 18 18 18 19 22
72 57 42 31 25 22 20 19 18 16 15 15 14 13 13 13 12 12 12 11 10 11 10 9 9 9 9 9 9 9 9 9 9 9 9 9 9 9 9 9 9 9 9 10 10 10 10 10 10 10 10 9 9 9 9 9 9 10 10 11 12 12 13 13 14 15 16 16 15 13 12 14 17 18 18 17 17 18 18 18 18 18 20 23 26
57 43 31 25 21 19 18 18 16 15 15 14 13 13 12 11 11 11 10 10 10 10 9 9 9 9 8 9 9 9 9 9 9 9 9 9 9 9 9 8 9 9 9 9 9 9 9 10 10 10 10 10 10 10 9 9 9 9 10 11 12 12 12 13 14 15 15 15 13 13 13 16 17 17 17 17 17 18 18 18 18 20 22 26 30
42 30 23 20 18 17 17 16 15 14 14 13 12 12 11 10 10 10 9 10 10 9 9 9 9 8 8 8 8 8 9 8 8 8 8 9 9 9 9 9 9 8 8 8 9 9 9 9 10 10 10 10 10 10 9 9 9 9 10 11 12 12 12 13 14 15 15 14 13 13 15 16 17 17 17 17 18 19 19 18 19 22 25 30 34
29 22 19 17 17 16 15 14 14 13 12 11 11 11 10 10 10 9 9 10 9 8 9 9 8 8 8 8 8 9 8 8 8 8 8 9 9 9 9 9 8 8 9 9 9 9 9 9 9 10 10 11 11 10 10 9 9 10 11 11 12 12 12 13 15 16 14 13 13 14 16 17 17 17 18 18 19 19 19 19 22 25 29 34 38
21 18 17 16 15 15 14 13 12 12 11 10 10 10 9 10 9 9 9 9 8 8 8 8 7 8 8 7 8 8 8 8 8 8 8 8 8 8 9 8 8 8 9 9 9 9 9 9 10 10 10 11 11 10 9 9 10 11 11 12 12 12 13 15 16 14 13 13 14 16 17 17 17 17 18 19 19 19 20 22 25 29 34 38 40
18 17 16 15 14 13 12 12 11 10 10 10 9 9 9 9 8 9 9 8 8 8 8 7 7 8 8 8 8 8 7 8 8 8 8 8 8 8 8 8 8 9 9 9 10 10 9 10 10 10 11 11 10 9 9 10 11 12 12 12 12 13 15 15 14 13 13 15 16 17 17 17 17 18 19 20 19 20 22 25 30 35 39 41 44
16 15 14 13 13 12 11 10 10 9 9 9 8 8 8 8 8 8 8 8 8 8 7 7 8 7 8 8 8 7 8 8 8 8 8 8 8 8 8 8 8 9 9 9 10 10 10 11 11 11 11 11 10 9 10 11 12 12 12 12 14 15 15 14 13 14 15 16 17 17 17 17 18 20 20 20 20 22 26 31 36 40 42 45 51
15 14 13 12 11 10 10 9 9 8 8 8 8 8 8 8 8 8 8 8 8 7 7 8 8 7 8 8 8 8 8 8 8 8 8 7 8 8 8 8 9 9 9 10 10 10 11 11 11 11 11 10 9 10 11 12 12 12 13 14 15 14 13 13 14 16 17 17 17 17 17 18 20 21 20 21 23 26 32 37 41 43 47 53 59
13 12 11 10 9 9 9 8 8 8 8 8 8 8 8 8 8 8 8 8 7 7 8 8 8 8 8 8 7 8 8 8 8 8 8 8 8 8 8 8 9 9 9 10 10 11 11 11 11 11 10 9 10 12 12 12 13 13 14 14 14 13 14 15 17 18 18 17 17 17 19 20 21 20 21 24 27 32 38 42 44 48 55 60 60
11 11 10 9 9 8 8 8 8 8 8 8 8 7 8 8 7 7 8 7 7 7 8 8 8 8 8 7 8 8 8 8 8 8 8 8 8 8 8 9 9 9 10 11 11 11 11 11 11 10 10 11 12 12 12 13 14 14 15 15 14 15 16 17 17 17 17 17 18 20 21 21 21 22 25 29 33 38 44 46 49 56 61 60 56
10 9 8 8 8 8 8 8 8 7 7 7 7 7 7 7 7 7 7 7 7 8 8 8 8 8 7 8 8 8 8 8 8 8 8 8 8 8 9 9 9 10 11 11 11 12 11 10 11 11 12 12 13 13 14 15 15 15 15 15 15 16 17 17 16 17 17 18 20 21 21 21 23 26 30 35 39 44 48 51 58 63 62 56 56
9 8 8 8 8 8 8 8 8 7 8 7 7 7 7 7 7 7 7 7 8 8 8 8 8 7 8 8 8 8 8 8 8 8 8 9 9 9 10 10 10 11 11 11 12 11 11 11 12 13 13 13 14 15 15 16 15 16 16 16 16 17 17 16 17 18 19 21 22 21 22 25 28 32 36 41 46 49 53 58 63 62 57 56 63
8 8 8 8 8 8 8 8 7 7 7 7 7 7 7 7 8 7 7 7 8 8 8 8 8 8 8 8 8 8 8 8 8 8 9 9 9 10 10 10 11 12 11 12 12 11 11 12 13 13 14 15 16 16 16 16 16 17 17 16 16 17 16 17 19 21 22 22 22 23 26 30 34 38 43 47 50 54 59 63 62 59 58 64 75
8 8 8 8 8 8 8 8 7 7 7 7 7 7 7 7 7 7 7 8 8 8 8 8 7 8 8 8 8 8 8 8 8 9 9 9 10 11 11 12 12 12 11 12 12 12 13 14 14 15 16 16 16 16 17 17 17 17 17 16 17 18 19 21 22 22 22 23 25 27 32 36 41 45 48 50 53 58 62 62 60 61 67 77 90
8 8 8 8 8 8 8 8 8 7 7 7 7 7 7 7 7 7 7 8 8 7 7 8 8 8 8 8 8 8 8 9 9 10 10 10 11 11 12 13 12 12 12 12 13 14 15 16 16 17 17 16 16 17 17 17 17 17 17 18 19 21 22 23 23 23 24 26 29 34 39 43 46 48 51 55 59 62 62 61 63 70 80 90 97
Wind_Speed
115 112 112 114 115 117 119 122 124 126 126 123 120 117 114 112 109 107 104 101 98 95 91 87 83 79 75 73 71 70 70 71 71 70 69 68 67 66 65 64 64 64 64 64 64 64 64 64 65 66 66 67 68 68 69 69 69 70 70 71 72 72 73 74 75 75 76 77 78 79 80 81 82 83 84 85 86 87 88 89 90 91 91 92 93
112 111 112 114 116 118 120 122 125 126 126 123 120 117 114 112 109 107 104 101 97 94 90 87 84 81 78 74 71 69 68 68 69 70 70 70 69 68 67 66 66 65 65 65 65 65 65 65 65 66 67 68 69 69 70 71 71 72 72 73 73 74 74 75 76 77 77 78 79 80 81 82 83 83 84 85 86 87 89 90 91 92 92 93 94
111 111 113 114 116 118 120 123 125 126 125 122 120 117 114 111 109 107 104 101 97 94 90 87 84 82 80 77 74 71 68 67 67 68 70 70 70 69 69 68 67 67 66 67 67 67 67 67 67 67 68 68 69 70 71 72 73 73 74 75 75 76 76 77 78 78 79 80 81 81 82 83 84 85 85 86 87 88 89 90 91 92 93 94 95
111 112 113 115 117 118 121 124 126 126 125 122 119 116 114 111 108 106 104 101 98 94 90 87 84 82 80 78 76 73 70 69 67 67 68 70 71 71 71 70 69 68 68 68 68 68 68 68 68 68 69 69 70 71 72 72 73 74 75 76 77 77 78 79 79 80 81 81 82 83 83 84 85 86 87 88 89 89 90 91 91 92 92 93 94
112 113 115 117 118 119 122 124 126 126 124 121 118 116 113 110 108 105 103 100 97 94 90 87 84 82 80 78 76 75 72 70 69 68 67 68 70 71 71 72 72 71 70 69 69 69 70 70 70 70 70 71 72 72 73 74 75 76 76 77 78 79 79 80 81 81 82 83 83 84 84 85 86 87 88 89 89 90 91 91 92 93 93 93 93
113 114 116 117 118 120 123 125 127 126 124 121 118 115 113 110 107 105 103 100 97 94 91 88 85 83 80 79 77 76 74 72 70 69 68 68 69 70 71 72 72 73 72 71 71 71 71 72 72 72 72 73 74 74 75 76 77 78 78 79 80 80 81 82 82 83 83 84 85 85 85 86 86 87 88 89 90 91 91 92 92 92 92 92 93
114 116 117 118 119 121 124 126 127 126 124 121 118 115 113 110 107 105 102 100 97 94 92 89 86 83 81 79 78 77 75 74 72 71 69 68 68 70 71 71 72 73 73 73 73 73 73 73 73 74 74 75 76 76 77 78 79 80 80 81 82 82 82 83 83 84 84 85 85 85 85 86 86 86 87 88 89 89 91 92 92 91 91 91 91
115 116 118 118 120 122 125 127 127 126 124 121 119 116 113 110 107 105 102 100 97 95 93 90 88 85 82 80 79 78 77 76 74 73 71 69 69 69 70 71 72 72 73 73 73 73 73 74 74 74 75 76 77 78 79 80 81 81 82 82 83 83 83 84 84 84 84 85 85 84 84 85 85 85 85 86 86 87 88 89 90 90 90 90 89
116 117 118 119 121 123 126 127 128 126 124 121 118 116 113 110 107 105 102 100 98 95 93 91 89 86 84 82 80 79 78 77 76 74 73 71 70 70 71 71 72 73 73 73 73 73 73 74 74 75 75 76 77 79 80 80 81 81 82 82 83 83 83 83 83 83 84 84 84 83 83 83 83 84 84 84 84 84 84 85 86 87 88 88 88
116 117 118 120 122 124 126 128 128 126 124 121 118 115 113 110 107 105 102 100 97 95 93 92 89 87 85 84 82 80 79 78 77 76 75 73 72 72 72 72 73 73 73 74 73 73 73 73 74 74 75 75 76 77 78 79 79 80 81 81 81 81 81 82 82 82 82 82 82 82 81 80 80 81 82 82 82 81 81 82 83 83 84 85 85
116 117 119 121 123 125 127 128 127 126 123 120 118 115 113 110 107 104 102 100 97 95 93 92 90 88 86 84 83 82 80 79 78 77 76 75 74 74 73 73 74 74 74 74 74 74 73 73 74 74 74 74 75 76 76 77 78 78 79 79 79 79 79 80 80 80 80 80 80 79 79 78 77 78 79 79 79 78 78 78 79 80 80 80 81
117 118 120 122 124 126 127 128 127 125 122 120 117 115 113 110 107 105 103 100 98 95 93 92 90 88 86 85 83 82 81 79 78 78 77 76 75 75 75 75 75 75 76 76 75 75 75 74 74 74 74 74 74 74 75 76 76 76 77 77 77 77 77 78 78 78 78 78 77 77 76 76 75 74 75 76 75 75 75 75 75 75 76 76 76
118 119 121 123 125 127 128 128 127 125 122 119 117 115 113 110 108 105 103 101 99 96 94 92 90 88 86 85 84 83 81 80 79 78 78 77 76 75 76 77 77 76 76 77 77 77 76 76 75 75 75 75 74 74 74 75 75 75 75 75 75 75 75 75 75 75 75 75 74 74 73 73 72 72 72 72 72 72 71 71 71 71 72 72 72
119 120 122 125 126 128 128 128 127 124 121 119 117 115 113 110 108 106 104 102 100 97 95 93 91 88 87 85 84 83 82 80 79 79 78 77 77 75 76 77 78 78 77 77 77 77 77 77 76 75 75 75 74 73 73 73 74 74 73 72 72 72 72 72 72 72 72 72 71 71 70 70 70 70 70 70 70 69 68 68 69 69 69 69 69
120 122 124 126 127 128 129 128 126 124 121 119 117 115 113 110 108 106 105 103 100 98 95 93 91 89 87 85 84 83 83 81 80 79 79 78 77 76 75 76 78 79 79 78 78 78 77 77 76 76 75 74 73 73 72 72 72 73 72 70 70 70 70 70 70 69 69 69 69 68 68 67 67 68 68 68 67 66 66 66 66 67 67 68 67
121 124 126 128 129 129 129 128 126 124 121 119 117 115 113 111 109 107 105 103 101 98 95 93 91 89 88 86 84 84 83 82 80 80 80 79 78 77 76 76 77 78 79 79 78 77 77 76 76 75 74 72 72 71 71 71 71 71 71 69 68 67 68 68 67 67 67 67 66 67 66 66 66 66 66 66 65 64 63 63 64 65 65 65 65
123 126 128 130 131 131 130 129 126 123 121 119 117 115 113 111 109 107 106 104 102 99 96 93 91 89 88 86 85 84 84 83 81 80 80 80 79 78 77 76 76 77 78 79 78 77 76 75 74 73 72 70 69 69 69 69 69 70 69 68 66 65 65 66 66 65 65 64 64 64 65 65 64 64 63 63 63 62 61 61 62 62 62 61 61
125 128 130 132 132 132 131 129 126 123 121 119 117 115 113 111 109 108 106 105 103 100 96 93 91 89 88 86 85 84 83 83 82 81 81 81 80 79 77 77 77 77 77 77 77 76 75 74 73 71 70 69 67 67 66 66 67 67 67 66 65 63 63 64 64 64 63 63 63 62 63 63 62 62 62 61 60 59 59 59 60 60 60 58 56
127 130 132 133 134 133 132 129 126 124 121 120 117 115 113 111 109 108 107 105 103 100 97 93 91 89 87 86 85 84 83 83 82 81 80 80 80 79 78 77 77 77 77 76 76 75 75 73 72 70 69 68 67 65 64 64 65 65 65 64 63 61 61 62 62 62 62 62 61 61 60 60 61 61 60 59 58 58 57 57 58 58 58 56 52
129 131 133 134 134 134 132 129 126 124 122 120 118 115 113 111 110 108 107 106 104 101 97 94 91 89 87 86 85 84 83 82 82 81 80 80 79 79 78 77 76 76 76 76 75 75 74 73 71 70 69 68 66 65 64 63 63 63 63 62 61 61 61 60 60 59 60 61 60 60 59 59 59 59 58 58 57 57 57 57 56 57 56 54 51
130 133 134 135 135 135 132 129 126 124 122 120 118 116 113 111 110 109 108 106 104 101 98 94 91 89 87 86 85 84 83 82 81 81 81 80 79 78 77 77 76 75 75 75 75 74 73 71 70 69 68 67 66 65 64 63 62 61 61 60 59 59 60 59 58 58 59 59 59 58 57 57 58 57 57 57 56 57 57 56 55 55 54 51 50
132 135 136 137 136 135 132 129 127 124 122 120 118 116 114 112 110 109 107 105 103 100 97 94 92 89 87 86 85 84 83 81 81 81 80 80 79 78 77 76 75 74 74 74 74 73 72 70 69 68 67 66 65 64 63 62 61 60 60 59 58 58 59 59 58 57 57 58 57 57 56 56 56 56 55 55 55 55 56 55 53 54 52 49 48
134 137 138 138 137 135 132 129 127 124 122 120 118 116 114 113 111 109 107 104 101 99 96 93 91 89 88 86 85 83 82 81 80 80 79 79 78 77 76 75 74 73 72 73 72 72 70 69 68 67 66 65 64 63 62 61 60 59 59 58 57 57 57 58 57 57 57 56 56 55 54 54 54 54 54 53 53 54 54 53 51 50 48 47 47
137 139 139 139 138 135 132 129 127 124 122 120 118 117 115 114 112 110 107 104 101 98 95 93 91 89 87 86 84 83 82 81 80 79 78 78 78 77 76 74 73 72 71 71 71 71 69 68 67 66 66 65 63 62 61 60 59 59 59 58 57 56 56 57 57 57 56 55 54 54 53 52 52 52 52 51 51 52 51 50 48 46 45 45 45
139 140 140 139 138 135 132 129 127 125 123 121 119 117 115 114 113 110 107 103 100 97 95 93 91 89 86 85 83 82 81 80 79 78 77 77 76 75 75 73 72 71 71 70 70 69 69 68 67 66 65 64 62 61 60 60 59 58 58 58 57 56 55 55 55 55 55 54 53 52 50 50 50 50 50 49 50 50 49 48 45 42 42 44 44
140 141 141 140 137 134 131 129 127 125 123 121 119 117 116 115 113 110 106 103 100 97 95 92 90 88 86 84 83 82 81 80 78 77 76 75 74 74 73 72 71 70 69 69 69 68 68 67 66 65 64 63 61 61 60 59 58 57 57 57 56 56 55 54 53 53 53 52 51 50 48 48 48 47 47 48 48 47 47 45 42 40 40 42 42
142 142 141 140 137 133 131 129 127 126 124 122 120 118 116 115 113 109 105 102 99 96 94 92 89 87 86 84 82 81 80 79 78 76 75 74 73 72 71 71 70 68 68 68 68 68 67 66 65 64 63 62 61 60 59 58 57 56 55 55 55 54 53 52 52 51 51 50 49 48 47 46 46 45 45 46 45 44 43 42 41 39 38 39 40
143 143 142 140 136 133 131 129 127 126 124 122 120 118 117 115 112 108 104 101 98 95 93 91 89 87 85 83 82 81 80 78 77 75 74 73 72 71 70 70 68 67 66 66 66 66 66 65 64 63 61 60 60 59 58 57 56 55 54 53 53 52 51 51 50 49 49 49 48 47 45 45 44 43 44 44 42 41 40 39 39 39 37 37 39
144 144 142 139 136 133 131 129 127 125 123 121 120 118 116 114 110 107 104 100 97 94 92 89 88 86 84 83 81 80 79 78 76 74 72 71 71 70 70 69 68 66 65 64 64 65 65 64 63 61 60 59 58 57 56 55 55 54 53 52 51 50 50 49 48 48 48 47 46 45 44 43 43 42 43 42 39 37 36 37 38 37 36 36 37
145 144 142 138 136 134 131 129 127 124 122 121 120 119 116 112 108 105 102 99 96 93 91 88 87 85 84 82 81 79 77 76 75 73 72 70 70 70 69 69 67 66 64 63 63 63 63 63 62 60 59 58 57 57 56 54 54 53 52 51 50 49 49 48 47 47 47 46 45 44 43 42 42 42 41 39 37 34 34 36 37 36 35 35 35
146 144 141 138 136 134 131 129 127 124 122 120 119 118 115 111 107 104 101 98 95 92 90 88 86 84 83 81 80 79 77 74 73 71 70 70 69 69 68 67 66 65 63 62 62 61 61 61 60 59 58 57 56 56 55 54 53 52 51 50 49 48 48 47 46 46 46 45 44 43 42 41 42 41 39 37 35 32 33 35 35 33 33 34 33
146 144 141 138 136 134 131 129 126 123 121 119 117 115 113 110 107 104 100 97 95 92 89 87 85 83 82 80 79 77 75 73 71 69 68 68 68 68 67 66 65 64 62 61 60 60 60 59 59 58 56 55 55 54 54 53 52 51 50 49 49 48 47 46 46 45 44 43 42 41 41 41 41 39 37 34 33 32 33 34 33 32 33 32 30
146 143 141 138 136 133 130 127 124 122 120 118 115 113 110 107 106 103 101 98 95 92 89 86 84 82 81 79 77 75 73 71 69 68 67 66 66 66 66 65 64 62 61 59 58 58 58 58 57 55 54 53 53 52 52 52 51 49 49 48 47 46 45 45 44 43 42 41 40 40 40 40 39 37 34 32 32 32 32 31 31 31 31 29 27
146 143 140 138 135 132 129 125 123 120 118 116 113 110 108 105 103 101 100 98 96 93 89 85 82 80 78 76 75 73 71 69 68 66 66 65 65 64 64 63 62 61 59 58 57 56 56 55 55 53 52 51 50 49 49 49 48 47 47 46 45 44 43 42 42 41 40 39 39 39 39 38 36 33 31 31 32 31 29 29 30 30 29 26 23
145 142 140 137 134 130 127 123 121 119 116 114 111 108 106 103 101 99 97 95 94 92 89 85 82 79 76 74 72 70 68 67 66 65 64 63 63 63 62 61 60 59 57 56 56 55 54 53 53 52 50 49 48 47 46 46 45 44 44 44 43 42 40 39 39 39 38 38 38 37 37 35 33 31 30 31 30 28 27 28 29 28 25 22 20
144 142 139 135 132 128 125 121 119 116 113 111 108 105 103 101 99 97 95 92 90 88 86 84 81 78 75 73 71 69 67 65 64 63 62 61 61 60 60 59 58 57 56 54 53 52 52 51 51 50 48 47 46 45 44 43 42 41 41 41 40 39 38 37 37 37 37 37 36 35 34 31 30 29 30 29 27 26 26 27 26 24 22 19 17
143 140 137 134 130 126 123 120 117 114 111 108 106 103 101 99 96 94 92 89 87 85 83 81 78 76 74 71 69 67 65 63 62 61 60 59 58 57 57 56 55 54 53 52 51 50 50 49 48 48 47 45 44 43 42 40 40 39 38 38 37 36 36 36 36 36 35 35 34 32 30 29 28 29 28 26 25 25 25 25 23 20 18 16 14
141 138 135 131 127 124 121 118 115 112 109 106 104 101 99 96 93 91 89 86 84 82 80 78 76 74 72 70 67 65 63 60 59 58 58 57 56 55 55 54 53 52 51 50 49 49 48 46 45 45 44 43 42 41 39 38 37 36 36 35 35 35 34 35 34 34 33 32 31 29 28 27 27 26 24 23 23 24 23 22 19 17 14 13 14
139 135 131 127 124 121 119 116 113 110 107 104 102 99 96 93 91 88 86 84 82 79 78 76 74 73 71 68 66 64 61 59 57 57 56 55 54 53 53 52 51 50 49 48 47 46 45 44 43 42 41 41 40 39 37 36 35 34 33 33 33 33 33 33 32 31 30 29 28 27 26 26 24 23 21 21 22 22 21 18 16 13 13 13 14
136 132 127 124 121 119 116 113 110 107 104 102 99 96 93 90 88 86 83 81 79 77 76 74 72 71 68 66 64 62 60 58 57 55 54 53 52 51 50 50 49 48 47 46 45 44 43 42 40 39 38 38 37 36 35 33 32 32 31 31 31 31 30 29 28 28 27 27 26 25 24 22 21 20 20 20 20 19 17 15 13 12 13 14 13
133 129 125 122 119 116 113 110 107 104 101 98 95 93 90 88 86 83 81 79 77 75 73 72 70 68 66 63 62 60 59 58 56 53 52 52 51 50 49 48 47 46 45 44 43 43 41 40 38 37 35 35 34 33 32 31 30 29 29 29 29 28 27 26 25 25 25 24 23 21 20 19 19 19 19 18 18 16 14 12 12 13 13 13 13
129 126 122 119 116 114 111 108 104 101 98 95 92 90 88 85 83 81 79 76 75 73 71 69 67 65 63 61 60 59 58 57 54 52 51 50 49 48 47 45 44 43 43 42 41 40 39 37 36 34 33 32 31 30 29 28 27 27 26 26 26 25 24 24 23 23 22 20 19 18 18 18 17 17 17 16 15 14 12 12 13 13 13 13 13
126 123 120 116 113 110 107 105 102 99 96 93 90 87 85 82 80 78 76 74 72 70 68 66 64 62 60 59 58 57 56 54 53 51 50 48 47 46 45 43 42 41 40 39 38 38 36 35 33 31 30 29 28 27 25 25 24 24 24 23 22 22 22 22 21 19 18 17 16 16 16 16 16 15 15 14 13 12 13 13 14 14 14 14 13
122 119 116 113 110 107 104 101 99 96 94 91 88 85 82 80 77 75 73 71 69 67 65 64 62 60 58 57 56 55 53 52 51 50 48 46 44 43 42 41 40 38 37 37 36 35 33 32 30 28 27 26 25 24 23 22 22 21 21 20 20 19 19 19 18 16 15 15 15 15 15 15 14 14 14 13 13 13 14 14 14 14 14 15 14
119 116 113 110 107 103 100 98 95 93 91 88 85 82 79 77 74 72 70 68 67 65 63 61 59 58 57 56 54 52 51 50 49 48 46 44 42 40 39 38 37 36 35 34 33 32 30 28 26 25 24 23 22 21 20 20 19 19 18 17 17 17 17 16 15 14 14 14 14 14 14 14 13 13 14 14 14 14 15 15 15 16 16 15 13
115 112 109 106 103 100 97 94 92 89 87 84 81 79 76 74 72 70 68 66 64 62 60 58 57 56 55 53 52 50 49 48 47 45 43 42 40 38 37 35 35 34 33 32 29 27 26 25 23 22 21 20 19 18 18 17 17 16 16 15 15 15 15 14 14 13 13 13 13 14 13 13 14 14 14 15 15 16 16 17 17 17 16 14 11
111 108 105 102 99 96 93 90 88 85 83 80 78 76 73 71 69 67 65 63 61 59 57 56 55 53 52 50 49 48 47 45 44 42 41 39 37 35 34 33 32 32 30 28 26 24 22 22 20 19 18 17 16 16 15 15 15 14 14 13 13 13 13 13 12 13 13 13 13 13 13 14 15 16 16 17 17 18 19 19 18 17 15 12 12
106 103 100 97 94 91 88 86 84 81 79 77 75 73 71 69 66 64 62 60 58 56 55 53 52 50 49 48 47 46 44 42 41 39 38 36 35 33 32 31 30 28 27 24 22 20 19 18 18 17 16 14 14 13 13 13 13 12 12 12 12 12 12 12 12 13 13 13 13 14 15 16 17 18 18 19 19 20 20 20 18 16 14 13 14
102 98 95 92 89 86 84 82 80 78 76 74 71 69 67 65 63 61 59 57 55 53 52 51 49 48 46 46 45 43 41 40 38 36 35 33 32 31 30 29 27 25 23 21 19 18 17 16 15 14 13 12 12 12 12 11 11 10 10 11 11 12 12 12 13 13 14 14 15 16 17 18 19 20 20 21 22 22 20 18 16 15 15 15 14
96 93 90 87 84 82 80 78 76 74 72 70 68 66 64 62 60 58 56 54 52 50 49 48 47 45 44 43 42 40 39 37 35 33 32 31 30 29 27 25 23 21 19 18 17 15 14 13 12 11 11 10 10 10 10 10 9 10 10 11 12 12 12 13 14 14 15 16 17 18 20 21 21 22 23 23 22 21 19 18 17 17 16 14 12
91 88 86 83 81 79 77 74 72 71 69 67 65 63 61 59 57 55 52 51 49 48 46 45 44 43 41 40 39 38 36 34 32 31 29 28 27 26 24 21 19 18 16 15 14 13 11 10 10 9 9 9 9 8 9 9 10 11 11 12 12 13 14 14 15 16 17 18 20 21 22 23 24 24 24 23 22 21 20 19 19 18 16 14 12
Wind_Direction
323 324 325 327 329 330 332 333 333 333 332 332 331 331 330 329 328 327 327 326 325 324 323 321 319 316 314 311 309 306 304 302 300 299 297 296 294 293 291 290 289 288 286 285 284 283 282 281 280 280 279 279 279 279 279 278 278 278 277 277 277 277 276 276 276 275 275 274 274 273 273 272 272 272 271 271 271 271 271 271 270 270 270 270 269
323 325 327 328 330 331 333 333 333 332 332 331 331 330 330 329 328 327 326 325 325 324 322 321 319 317 315 312 310 307 305 302 300 298 296 295 294 293 291 290 290 289 288 287 285 284 283 282 281 281 280 280 279 279 279 278 278 278 277 277 277 276 276 276 275 275 275 275 274 274 274 273 273 272 272 271 271 270 270 270 271 271 271 271 270
324 326 328 329 331 332 333 332 332 332 331 331 330 330 329 328 327 327 326 325 324 323 322 320 319 317 315 313 311 309 306 303 301 298 296 295 293 292 291 290 289 288 287 287 286 285 284 283 282 281 281 280 280 279 279 279 278 278 278 277 277 276 276 276 276 275 275 275 274 274 274 274 274 273 273 272 272 271 271 270 270 270 270 271 271
325 327 329 330 332 333 332 332 332 331 331 330 330 329 329 328 327 326 326 325 324 323 322 320 318 317 315 313 312 310 308 305 303 300 297 296 294 293 291 290 289 288 287 286 286 285 284 283 283 282 281 281 280 280 279 279 278 278 278 277 277 277 276 276 276 276 276 275 275 274 274 274 274 274 273 273 273 273 272 272 271 271 270 270 271
326 328 329 331 332 332 332 331 331 331 330 330 329 329 328 327 327 326 325 325 324 323 322 320 318 317 315 313 312 310 308 306 304 301 299 297 295 293 292 290 289 288 287 286 286 285 284 284 283 283 282 281 281 280 280 279 279 278 278 277 277 277 277 276 276 276 276 276 276 275 275 274 274 274 274 273 273 273 273 272 272 272 272 272 272
327 328 330 331 332 332 331 331 331 330 330 329 329 328 328 327 326 326 325 325 324 323 322 320 318 317 315 313 311 310 308 306 304 302 300 298 295 294 292 291 289 288 288 287 286 285 285 284 284 283 283 282 282 281 281 280 279 279 279 278 278 278 277 277 277 277 277 277 276 276 276 275 275 274 274 274 274 274 273 273 272 272 272 273 273
327 328 330 331 332 331 330 330 330 330 329 329 328 328 327 327 326 326 325 325 324 323 322 320 319 317 315 313 311 310 308 306 304 303 301 299 296 294 293 291 290 289 288 287 286 285 285 284 284 283 283 283 282 282 281 281 280 280 280 279 279 279 279 279 278 278 278 278 277 277 277 277 276 276 275 275 275 275 275 275 274 274 273 273 273
327 328 330 331 331 330 330 330 329 329 329 328 328 328 327 326 326 326 325 325 324 323 322 320 319 317 315 313 312 310 308 307 305 303 302 300 297 295 293 292 291 289 288 287 286 285 285 284 284 283 283 282 282 282 281 281 281 281 281 280 280 280 280 280 280 280 279 279 279 279 278 278 278 278 277 276 276 276 275 276 276 276 276 275 274
327 328 330 331 330 330 329 329 329 329 328 328 327 327 326 326 326 325 325 325 324 323 322 321 319 318 316 314 312 310 308 306 305 304 302 300 298 296 294 293 291 290 289 288 287 286 285 285 284 283 283 282 282 281 281 281 281 281 281 281 281 281 281 281 281 281 281 280 280 280 280 279 279 279 278 278 277 277 277 277 277 276 276 276 276
327 329 330 330 330 329 329 328 328 328 328 327 327 326 326 325 325 325 325 325 324 323 322 320 319 317 316 314 312 310 308 307 305 304 302 300 299 297 295 293 292 291 290 289 288 287 286 285 285 284 283 283 282 282 282 282 282 282 282 282 282 282 282 282 282 281 281 281 281 281 280 280 280 280 279 279 279 278 278 278 277 277 277 277 277
327 329 329 329 329 328 328 328 328 327 327 326 326 326 325 325 324 324 324 324 324 323 321 320 319 317 315 314 312 310 308 307 305 304 302 300 299 297 296 294 292 291 290 289 289 288 287 286 286 285 285 284 284 284 283 283 283 283 283 283 283 282 282 282 282 282 282 282 281 281 281 281 280 280 280 280 279 279 279 278 278 278 278 278 278
327 328 329 329 328 328 328 327 327 327 326 326 325 325 325 324 324 324 324 324 323 322 321 320 318 317 315 313 311 309 308 306 305 303 301 300 299 297 296 294 293 291 291 290 289 289 288 287 287 287 286 286 285 285 285 284 284 284 283 283 283 283 283 282 282 282 282 282 282 282 282 282 281 281 280 280 280 280 279 279 279 279 279 279 279
327 328 328 328 328 327 327 327 326 326 326 325 325 324 324 324 324 324 324 324 323 322 321 319 318 316 314 313 311 309 307 306 304 303 301 300 298 297 296 294 293 292 291 290 289 289 288 288 288 287 287 287 286 286 286 285 285 284 284 284 284 283 283 283 283 282 282 282 282 282 282 282 282 282 281 281 281 281 281 281 280 280 279 279 278
327 328 328 327 327 327 327 326 326 325 325 325 324 324 324 323 323 324 324 324 323 322 321 319 317 316 314 312 311 309 307 306 304 302 301 299 298 297 295 294 293 292 291 290 289 289 288 288 288 288 288 287 287 287 286 286 286 285 285 285 285 284 284 284 283 283 283 282 282 282 282 282 282 282 282 282 282 282 282 283 282 282 281 280 279
327 327 327 327 327 326 326 326 325 325 325 324 324 323 323 323 323 323 323 323 323 322 320 319 317 315 314 312 310 308 307 305 304 303 301 300 298 297 295 293 293 292 291 290 289 289 289 289 289 288 288 288 288 288 287 287 287 286 286 286 285 285 285 284 284 283 283 283 283 283 283 283 283 283 283 283 283 283 283 284 284 283 283 282 282
326 327 327 327 326 326 326 325 325 325 324 324 323 323 323 323 323 323 323 323 322 321 320 318 317 315 313 312 310 309 307 305 304 303 301 300 299 297 296 294 293 292 291 291 290 290 289 289 289 289 289 288 289 288 288 288 287 287 287 286 286 285 285 284 284 283 283 283 283 283 283 283 283 283 283 284 284 284 284 284 284 283 284 284 284
326 326 326 326 326 326 326 325 325 324 324 323 323 322 322 322 322 322 322 322 321 320 319 318 316 315 313 311 310 309 307 306 305 304 302 301 300 298 297 295 294 293 292 291 291 291 290 290 289 289 289 289 288 288 288 288 287 287 287 286 286 286 285 285 284 284 283 283 283 283 284 284 284 284 284 284 285 285 285 285 285 284 285 285 286
326 326 326 326 326 326 325 325 324 324 324 323 323 322 322 322 322 322 322 322 321 320 319 318 316 315 313 311 310 309 307 306 305 304 302 301 300 299 298 297 295 294 293 293 293 292 292 291 291 290 290 290 289 288 288 287 287 286 286 286 286 286 285 284 284 284 284 284 283 283 284 284 284 284 285 285 285 286 286 285 285 285 285 286 287
325 325 326 326 326 325 325 325 324 324 323 323 322 322 321 321 322 322 322 322 321 320 319 318 316 315 313 311 310 309 307 306 305 304 302 301 300 300 299 298 296 295 295 294 294 293 293 293 292 292 292 291 290 289 288 287 286 286 286 286 286 286 285 284 284 284 284 284 284 283 283 284 284 285 285 286 286 286 286 286 286 286 286 287 289
325 325 325 325 325 325 324 324 324 323 323 322 322 322 322 322 322 322 322 322 321 320 319 318 316 315 313 311 310 308 307 306 305 304 302 302 301 300 299 298 297 297 296 295 295 294 294 294 293 293 293 292 291 290 289 287 286 286 286 286 286 286 285 284 284 284 283 283 283 283 283 284 284 285 286 286 287 287 287 287 287 287 288 290 291
324 325 325 325 325 324 324 324 323 323 323 322 322 322 322 322 322 322 322 322 321 320 319 318 316 315 313 312 310 308 307 306 305 304 303 302 301 300 300 299 298 297 297 296 295 295 294 294 294 293 292 292 291 290 289 288 287 287 286 286 286 285 285 284 284 283 282 282 283 283 283 284 284 285 285 286 287 287 287 287 287 287 288 291 291
324 325 325 325 325 324 324 323 323 323 322 322 322 322 322 322 323 322 322 322 321 320 318 317 316 315 313 312 310 309 307 306 305 304 303 302 302 301 300 299 299 298 297 296 295 295 295 294 294 293 292 291 290 290 289 288 288 287 287 286 286 285 284 284 284 283 282 282 282 282 283 283 284 284 285 285 286 286 286 286 287 287 289 290 288
324 325 325 324 324 324 323 323 322 322 322 322 322 322 323 323 323 322 322 321 320 319 318 317 316 315 313 312 310 309 307 306 305 304 303 302 301 301 300 299 299 298 297 296 295 295 295 294 294 293 292 291 290 290 289 289 288 288 287 286 285 284 284 284 283 282 282 282 282 282 283 283 284 284 284 285 285 285 285 286 286 288 289 288 285
324 324 324 324 324 323 323 322 322 322 322 322 323 323 323 323 323 322 321 320 319 318 318 317 315 314 313 311 310 309 307 306 305 304 303 302 302 301 301 300 299 299 298 296 296 295 295 294 294 292 292 291 291 290 289 289 288 287 286 286 285 284 283 283 282 282 282 282 283 283 283 283 283 284 284 284 284 284 285 285 286 288 287 284 283
324 324 324 324 323 323 322 322 322 322 322 323 323 323 323 323 323 322 321 320 319 318 317 316 315 314 312 311 310 308 307 306 305 304 303 302 301 301 300 300 299 298 297 296 295 295 294 294 293 292 291 291 290 290 289 288 287 286 286 285 284 283 283 282 282 282 283 283 283 283 283 283 283 283 284 284 284 284 284 285 286 286 284 282 282
323 323 323 323 323 322 322 322 323 323 323 323 323 323 323 323 323 322 320 319 318 318 317 316 315 313 312 311 309 308 307 305 304 304 303 302 301 301 300 299 298 297 296 295 294 294 293 292 292 291 291 290 290 289 288 287 286 285 285 284 284 283 283 282 282 283 283 283 283 282 282 282 282 283 283 283 283 284 285 285 285 283 282 282 283
323 323 323 323 322 322 322 323 323 323 323 323 323 323 323 323 322 321 320 319 318 317 316 315 314 313 312 310 309 308 307 305 305 304 303 302 301 300 299 298 297 296 295 294 294 293 292 291 291 290 290 290 289 288 288 287 286 285 284 284 283 283 283 283 283 283 283 283 282 282 282 282 282 283 282 282 283 284 285 286 285 282 281 282 282
323 323 323 322 322 322 323 323 323 323 323 323 323 323 323 322 321 320 319 318 317 316 316 315 313 312 311 310 309 308 307 306 305 304 303 302 301 299 298 297 296 295 294 294 293 292 291 291 290 290 290 289 289 288 287 287 286 285 284 284 283 283 283 283 283 283 282 282 282 282 282 282 282 282 282 282 283 284 285 286 284 283 282 282 282
322 322 322 322 322 323 323 323 323 323 323 323 322 322 322 321 320 319 318 317 316 316 315 314 313 312 311 310 309 308 307 306 305 304 303 301 300 299 297 296 295 294 294 293 292 291 291 290 290 290 289 289 288 287 286 286 285 284 284 284 283 283 283 283 283 283 282 282 282 282 282 283 283 282 282 282 283 285 286 285 283 282 283 282 282
322 322 322 322 322 323 323 323 322 322 322 323 322 322 321 320 319 318 317 316 316 315 314 313 312 311 310 309 308 307 306 305 305 303 302 301 299 297 296 295 295 294 293 293 292 291 290 290 290 289 289 288 287 287 286 285 284 284 283 283 283 282 282 282 283 282 282 282 282 283 283 283 283 282 282 283 284 285 285 282 280 281 282 281 282
322 322 322 322 322 323 322 322 322 322 322 322 322 321 320 319 318 317 316 316 315 314 313 313 312 311 310 309 308 307 306 305 304 303 301 300 298 296 295 295 294 294 293 292 291 290 289 289 288 288 288 287 287 286 286 285 284 284 283 283 282 282 282 281 281 281 282 282 283 283 284 283 282 282 283 284 285 284 281 278 279 280 279 279 282
322 322 322 322 322 322 322 322 322 322 322 321 321 320 319 318 317 316 316 315 314 313 313 312 311 310 309 308 307 306 306 304 303 302 300 299 297 296 296 295 294 294 293 292 291 290 289 288 287 287 286 286 285 285 285 284 284 283 283 282 282 281 281 281 281 281 282 282 283 283 282 281 281 281 283 284 283 280 276 276 278 277 276 278 282
322 322 322 322 322 322 321 321 321 321 321 321 320 319 318 317 317 316 315 314 313 313 312 312 311 310 309 308 307 306 305 304 303 301 300 299 297 297 296 295 295 294 293 292 291 289 288 287 287 286 285 284 284 283 283 283 283 283 282 282 281 281 280 280 280 281 281 281 281 280 279 279 280 282 283 282 278 276 275 276 275 274 275 278 280
322 322 322 322 321 321 321 321 320 320 320 320 319 318 317 317 316 315 314 314 313 312 312 311 311 310 309 308 307 306 305 304 303 302 301 299 298 297 297 296 295 294 294 293 291 290 289 288 287 286 285 284 283 282 282 282 282 282 281 281 281 280 280 280 280 279 279 279 278 277 277 278 280 281 280 277 274 274 275 274 271 271 274 277 278
321 321 321 321 321 320 320 320 320 320 319 319 318 317 316 316 315 314 314 313 312 312 311 311 310 310 309 308 307 306 305 304 303 302 301 300 299 298 298 297 296 295 294 293 292 291 289 288 287 285 284 283 282 282 281 281 280 280 280 280 280 280 280 278 277 276 276 276 275 275 276 278 279 278 275 272 273 274 272 269 269 271 274 275 275
321 321 320 320 320 320 319 319 319 319 318 318 317 316 315 315 314 313 313 312 312 311 311 310 310 309 309 308 307 306 306 305 304 303 302 301 300 299 298 297 296 296 295 293 292 291 289 288 286 286 285 284 283 282 281 281 280 280 279 279 279 278 277 275 273 273 273 273 274 275 276 277 276 273 271 271 272 270 266 265 268 270 271 271 270
320 320 320 320 319 319 319 319 319 318 317 317 316 315 315 314 313 313 312 311 311 311 310 310 309 308 308 307 307 307 306 305 305 303 302 301 300 299 298 297 296 295 294 293 292 290 289 288 287 286 285 284 283 282 281 281 280 279 278 278 277 275 273 271 270 270 270 272 273 275 276 274 271 269 270 270 267 263 262 264 266 267 266 265 260
320 319 319 319 319 319 319 318 318 317 317 316 315 315 314 313 312 312 311 311 310 310 310 309 308 308 307 307 307 306 306 305 304 303 302 301 300 299 298 296 295 294 293 292 291 290 290 289 288 287 285 284 283 283 282 281 280 279 277 276 274 272 270 268 268 269 270 272 273 273 272 270 268 268 267 264 260 258 260 261 262 261 259 253 246
319 318 318 318 318 318 318 318 317 316 316 315 314 314 313 312 312 311 310 310 310 309 309 308 307 307 307 307 307 306 305 304 303 302 302 301 300 299 298 296 295 294 293 292 292 291 291 290 288 287 285 284 283 282 281 280 279 277 275 273 271 270 268 267 268 269 271 271 271 270 268 267 267 265 261 257 255 256 256 256 255 251 245 238 234
318 318 318 318 318 318 317 317 316 315 315 314 313 313 312 311 311 310 310 309 309 309 308 307 307 307 307 307 306 305 304 304 303 302 302 301 299 298 296 295 295 294 294 293 293 292 291 290 289 287 285 283 282 281 280 279 278 275 273 271 269 268 267 267 268 268 268 268 268 267 266 265 262 257 254 252 251 251 250 248 244 236 230 226 222
318 317 318 317 317 317 316 316 315 314 314 313 312 312 311 311 310 310 309 309 309 308 308 307 307 307 307 307 306 304 303 303 302 302 301 300 298 297 296 295 295 295 294 294 293 292 292 291 289 287 285 283 281 280 279 278 275 273 270 269 268 267 267 266 266 265 265 265 265 263 261 258 254 250 248 247 246 244 241 235 227 221 217 213 207
317 317 317 317 316 316 315 315 314 313 313 312 312 311 310 310 310 309 309 309 309 308 308 308 308 308 307 306 305 304 303 303 303 302 300 299 298 297 296 296 295 294 294 294 293 292 292 291 289 287 285 283 281 279 278 276 273 270 268 266 265 265 264 263 262 263 262 261 259 257 253 249 246 243 241 239 236 232 226 218 212 209 204 198 192
317 317 316 316 315 315 314 314 313 313 312 311 311 311 310 310 309 309 309 308 308 308 308 308 308 308 307 306 304 304 304 303 302 301 300 300 299 298 297 296 295 295 294 294 294 293 293 291 289 287 285 282 280 278 276 273 270 267 265 263 261 260 260 260 260 259 257 254 250 247 243 240 238 235 231 228 223 217 210 204 200 197 192 186 182
316 316 316 315 315 314 314 313 312 312 312 311 311 310 310 309 309 308 308 307 307 307 308 308 308 307 306 305 305 305 304 302 301 300 300 300 299 298 297 297 296 296 295 295 295 294 293 291 289 287 284 282 280 277 274 270 267 264 262 260 258 258 257 257 255 252 248 244 240 237 233 231 227 222 218 214 208 201 195 192 190 185 180 177 179
316 315 315 314 314 313 313 312 312 311 311 311 310 310 309 309 308 307 307 307 307 308 308 308 308 307 306 306 306 305 303 301 300 300 301 300 299 298 298 297 297 297 296 296 295 294 292 290 288 285 282 280 278 275 270 266 263 260 258 256 255 254 252 250 247 243 238 233 229 226 222 217 212 208 204 200 193 187 183 182 180 176 174 176 179
315 314 314 314 313 313 312 312 311 311 310 310 310 309 308 308 307 307 307 307 307 308 308 308 307 307 306 307 306 305 303 301 301 300 300 300 300 299 298 298 298 297 297 296 295 293 291 288 286 283 280 278 273 269 265 261 257 256 254 251 249 246 243 240 236 232 226 220 217 213 208 202 197 194 190 185 179 176 175 174 172 171 173 174 165
314 314 313 313 313 312 312 311 311 310 310 309 309 308 308 307 307 306 307 307 308 308 308 308 307 307 307 307 305 304 303 302 301 300 300 300 300 299 299 298 298 298 297 296 294 292 289 287 284 281 277 273 268 263 258 255 253 251 249 245 240 236 232 228 223 217 212 208 204 198 192 188 185 181 177 173 170 170 169 168 167 170 170 160 136
313 313 313 312 312 312 311 311 310 310 310 309 309 308 308 307 307 307 307 307 308 308 308 307 307 307 307 306 304 304 303 302 301 300 300 300 299 299 299 299 299 298 297 295 293 290 287 284 280 276 271 267 262 257 253 251 248 245 240 233 228 224 219 212 207 203 199 194 189 183 179 177 173 170 167 166 166 166 166 165 165 164 155 136 119
313 312 312 312 312 311 311 311 310 310 309 309 309 308 308 307 307 306 307 307 308 308 307 307 307 307 306 305 304 304 302 301 301 300 300 299 299 299 299 299 299 297 295 293 291 287 283 278 274 270 264 259 254 251 248 245 239 232 224 217 212 207 201 196 194 191 186 181 177 173 170 166 164 162 163 164 164 164 163 161 157 147 133 119 110
312 312 312 312 311 311 311 311 310 310 310 309 309 308 307 307 306 307 307 308 307 307 307 307 307 306 306 305 304 303 302 301 301 300 299 299 300 300 300 300 298 296 293 290 287 283 278 272 267 261 256 251 248 246 240 232 222 212 205 200 195 190 186 184 182 178 174 171 168 164 160 158 159 160 162 163 162 160 156 150 139 128 117 111 109
312 312 312 312 312 311 311 311 311 310 310 309 308 308 307 307 307 308 308 308 307 307 307 307 306 306 306 305 303 302 302 301 300 300 300 300 301 300 300 299 297 294 290 286 282 277 271 264 258 253 249 245 239 231 221 211 201 193 188 185 180 177 175 174 172 170 167 164 159 155 154 156 159 160 160 159 156 152 145 135 125 117 114 117 125